[[{"header":{"parameterUnit":"m.s-1","parameterCategory":1,"la1":30.2992,"la2":30.254,"lo1":-89.0895,"lo2":-89.0443,"dy":0.0025,"dx":0.0025,"nx":19,"ny":19,"refTime":"2026-05-16T21:00:00:Z","depth":0,"parameterNumber":2,"parameterNumberName":"U-component_of_WINDS"},"data":[0,0,0,-2.3378,-2.3378,-2.3358,-2.3358,-2.3357,-2.3357,0,0,0,0,0,0,0,0,0,0,0,-2.3397,-2.3398,-2.3378,-2.3378,-2.3358,-2.3358,-2.3357,-2.3357,0,0,0,0,0,0,0,0,0,0,0,-2.3397,-2.3398,-2.3398,-2.3378,-2.3358,-2.3358,-2.3357,-2.3363,0,0,0,0,0,0,0,0,0,0,-2.3378,-2.341,-2.3398,-2.3398,-2.3378,-2.3358,-2.3358,-2.3363,-2.3363,-2.3376,0,-2.3391,0,-2.3374,-2.3358,-2.3358,0,0,0,-2.3367,-2.341,-2.3392,-2.3398,-2.3377,-2.3358,-2.3364,-2.3362,-2.3362,-2.3376,-2.3391,-2.339,-2.3374,-2.3359,-2.3359,-2.347,-2.3471,0,0,-2.3368,-2.3401,-2.3393,-2.3393,-2.3397,-2.3365,-2.3363,-2.3362,-2.3381,-2.339,-2.3389,-2.3374,-2.3359,-2.3359,-2.3469,-2.3471,0,0,0,-2.3378,-2.3403,-2.3384,-2.3393,-2.3388,-2.3364,-2.3363,-2.338,-2.3372,-2.3389,-2.3374,-2.3359,-2.3359,-2.3468,-2.347,-2.3553,0,0,0,-2.3378,-2.3408,-2.3385,-2.3405,-2.3389,-2.3384,-2.3382,-2.3372,-2.3371,-2.3374,-2.3359,-2.3359,-2.3467,-2.3469,-2.3548,-2.3586,0,0,0,-2.3394,-2.341,-2.3412,-2.3407,-2.34,-2.3383,-2.3374,-2.3371,-2.3362,-2.3358,-2.3359,-2.3466,-2.3469,-2.3543,-2.3579,-2.3626,0,0,0,-2.342,-2.3485,-2.3414,-2.3481,-2.34,-2.3435,-2.3373,-2.3397,-2.3404,-2.3359,-2.3467,-2.347,-2.3542,-2.3574,-2.3622,-2.3672,-2.3695,0,0,-2.352,-2.3498,-2.3535,-2.3471,-2.3526,-2.3435,-2.3502,-2.3477,-2.3446,-2.3464,-2.3466,-2.3549,-2.3578,-2.3625,-2.3817,-2.3837,0,0,0,-2.3578,-2.3605,-2.3613,-2.3621,-2.3604,-2.3593,-2.3553,-2.3545,-2.3558,-2.3462,-2.3578,-2.3594,-2.362,-2.3642,-2.3659,-2.3679,-2.3481,-2.3481,-2.3481,-2.3768,-2.3726,-2.3784,-2.3741,-2.375,-2.371,-2.3714,-2.3695,-2.3649,-2.3678,-2.3682,-2.3804,-2.3832,-2.3844,-2.3866,-2.3705,-2.3705,-2.3706,-2.3706,-2.3912,-2.3944,-2.3883,-2.3918,-2.3874,-2.3903,-2.3868,-2.3835,-2.3856,-2.3796,-2.3817,-2.3755,-2.3866,-2.3883,-2.3712,-2.3711,-2.371,-2.3709,-2.3709,-2.4031,-2.4039,-2.4028,-2.4037,-2.4049,-2.4003,-2.4027,-2.3986,-2.3947,-2.3967,-2.3969,-2.3968,-2.3961,-2.3971,-2.3972,-2.3972,-2.3972,-2.3973,-2.3973,-2.416,-2.4144,-2.4169,-2.4158,-2.4159,-2.4156,-2.4118,-2.4118,-2.4108,-2.4076,-2.4076,-2.4028,-2.3885,-2.385,-2.3979,-2.3978,-2.3977,-2.3977,-2.3976,-2.4322,-2.4279,-2.4318,-2.4319,-2.4304,-2.432,-2.4267,-2.4272,-2.4266,-2.4279,-2.4228,-2.4128,-2.4102,-2.4089,-2.406,-2.4236,-2.4236,-2.4236,-2.4236,-2.4423,-2.4406,-2.4438,-2.4443,-2.4443,-2.44,-2.4447,-2.442,-2.4385,-2.4379,-2.4347,-2.4305,-2.4294,-2.4275,-2.4257,-2.4229,-2.4445,-2.4445,-2.4445,-2.4521,-2.4503,-2.455,-2.4515,-2.45,-2.4489,-2.4533,-2.4542,-2.4493,-2.4453,-2.4374,-2.4365,-2.4296,-2.4276,-2.4233,-2.4207,-2.4155,0,0]},{"header":{"parameterUnit":"m.s-1","parameterCategory":1,"la1":30.2992,"la2":30.254,"lo1":-89.0895,"lo2":-89.0443,"dy":0.0025,"dx":0.0025,"nx":19,"ny":19,"refTime":"2026-05-16T21:00:00:Z","depth":0,"parameterNumber":3,"parameterNumberName":"V-component_of_WINDS"},"data":[0,0,0,3.3575,3.3575,3.3534,3.3534,3.3493,3.3493,0,0,0,0,0,0,0,0,0,0,0,3.3596,3.3596,3.3575,3.3574,3.3534,3.3534,3.3493,3.3493,0,0,0,0,0,0,0,0,0,0,0,3.3596,3.3596,3.3596,3.3574,3.3534,3.3534,3.3493,3.3519,0,0,0,0,0,0,0,0,0,0,3.3556,3.3584,3.3596,3.3596,3.3574,3.3534,3.3534,3.352,3.3518,3.3517,0,3.352,0,3.3506,3.3491,3.3491,0,0,0,3.3568,3.3586,3.3568,3.3596,3.3574,3.3534,3.355,3.3519,3.3516,3.3513,3.3519,3.3517,3.3505,3.3491,3.3491,3.3512,3.3512,0,0,3.357,3.3592,3.357,3.3567,3.3576,3.3552,3.3549,3.3517,3.3524,3.3519,3.3516,3.3505,3.3491,3.3491,3.3511,3.3512,0,0,0,3.3581,3.3594,3.3576,3.3569,3.3561,3.3551,3.3548,3.3525,3.3518,3.3515,3.3504,3.3491,3.349,3.3511,3.3512,3.3555,0,0,0,3.3582,3.3601,3.3578,3.3591,3.3562,3.3543,3.3557,3.352,3.3516,3.3504,3.3491,3.349,3.351,3.3511,3.3553,3.3571,0,0,0,3.3595,3.3602,3.3599,3.3592,3.3576,3.3543,3.3533,3.3518,3.3509,3.3491,3.349,3.351,3.3511,3.3551,3.3568,3.3583,0,0,0,3.3615,3.3638,3.36,3.3621,3.3577,3.3571,3.3533,3.3527,3.3517,3.349,3.3511,3.3512,3.355,3.3566,3.3581,3.36,3.361,0,0,3.3656,3.3643,3.3653,3.3619,3.3626,3.3575,3.3587,3.3555,3.3532,3.3519,3.352,3.3553,3.3567,3.3583,3.366,3.3668,0,0,0,3.3673,3.3681,3.3678,3.367,3.3648,3.3629,3.3594,3.3582,3.357,3.3531,3.3562,3.357,3.3578,3.3586,3.3593,3.3598,3.3516,3.3516,3.3516,3.3762,3.3733,3.3747,3.3713,3.3706,3.3669,3.366,3.3637,3.3608,3.3616,3.3612,3.3663,3.3673,3.3678,3.3684,3.362,3.362,3.362,3.362,3.3818,3.3824,3.3786,3.3787,3.3755,3.3754,3.3719,3.3699,3.3692,3.3664,3.3669,3.364,3.3688,3.3691,3.3623,3.3623,3.3623,3.3622,3.3622,3.3872,3.387,3.3856,3.3842,3.3834,3.3798,3.3794,3.3764,3.3736,3.3742,3.3734,3.3733,3.3728,3.374,3.374,3.3741,3.3741,3.3741,3.3741,3.3934,3.3917,3.3918,3.3897,3.3888,3.3872,3.3836,3.3826,3.3806,3.3785,3.3785,3.3755,3.3699,3.3685,3.3744,3.3743,3.3743,3.3743,3.3742,3.4,3.3981,3.3983,3.3974,3.3946,3.394,3.3903,3.3884,3.3871,3.387,3.3839,3.3803,3.3787,3.3781,3.377,3.3846,3.3846,3.3846,3.3846,3.4046,3.4036,3.4031,3.4019,3.4004,3.3971,3.3972,3.3943,3.391,3.39,3.3885,3.3867,3.3863,3.3849,3.3842,3.3831,3.3921,3.3921,3.3921,3.4085,3.4072,3.408,3.4049,3.4025,3.4004,3.4004,3.399,3.3949,3.3923,3.3891,3.3888,3.3859,3.3851,3.3825,3.3814,3.3793,0,0]}]]